Lancaster, PA

10:17 PM EDT on April 23, 2017 (GMT -0400)
Lancaster

Weather History for KLNS - September, 2012

Change the Weather History Date:

Friday, September 21, 2012

  Actual Average Record
Temperature  
Mean Temperature 60 °F -  
Max Temperature 75 °F 76 °F 87 °F (1980)
Min Temperature 48 °F 54 °F 42 °F (1991)
Degree Days  
Heating Degree Days 4    
Growing Degree Days 10 (Base 50)    
Moisture  
Dew Point 54 °F    
Average Humidity 76    
Maximum Humidity 93    
Minimum Humidity 57    
Precipitation  
Precipitation 0.00 in - - ()
Sea Level Pressure  
Sea Level Pressure 30.04 in    
Wind  
Wind Speed 4 mph (SE)    
Max Wind Speed 13 mph    
Max Gust Speed -    
Visibility 9 miles    
Events      
Averages and records for this station are not official NWS values.
T = Trace of Precipitation, MM = Missing Value Source: NWS Daily Summary

Daily Weather History Graph

Daily Weather History Graph

Search for Another Location

Airport or City:

Trip Planner

Search our weather history database for the weather conditions in past years. The results will help you decide how hot, cold, wet, or windy it might be!

Date:

Astronomy

Sep. 21, 2012 Rise Set
Actual Time 6:52 AM EDT 7:03 PM EDT
Civil Twilight 6:25 AM EDT 7:30 PM EDT
Nautical Twilight 5:53 AM EDT 8:01 PM EDT
Astronomical Twilight 5:21 AM EDT 8:34 PM EDT
Moon 1:11 PM EDT (9/21) 11:01 PM EDT (9/21)
Length of Visible Light 13h 05m
Length of Day
12h 10m
Waxing Crescent, 37% of the Moon is Illuminated
Sep 21
Waxing Crescent
Sep 22
First Quarter
Sep 29
Full
Oct 8
Last Quarter
Oct 15
New

Hourly Weather History & Observations

Time (EDT) Temp. Dew Point Humidity Pressure Visibility Wind Dir Wind Speed Gust Speed Precip Events Conditions
12:53 AM 53.1 °F 50.0 °F 89% 30.09 in 8.0 mi ENE 4.6 mph - N/A   Clear
1:53 AM 54.0 °F 50.0 °F 86% 30.09 in 9.0 mi Calm Calm - N/A   Clear
2:53 AM 51.1 °F 48.9 °F 92% 30.08 in 5.0 mi Calm Calm - N/A   Clear
3:53 AM 50.0 °F 48.0 °F 93% 30.07 in 5.0 mi East 3.5 mph - N/A   Clear
4:53 AM 51.1 °F 48.0 °F 89% 30.07 in 5.0 mi Calm Calm - N/A   Clear
5:53 AM 50.0 °F 48.0 °F 93% 30.08 in 5.0 mi ESE 3.5 mph - N/A   Clear
6:53 AM 48.9 °F 46.9 °F 93% 30.08 in 5.0 mi Calm Calm - N/A   Clear
7:53 AM 52.0 °F 50.0 °F 93% 30.08 in 6.0 mi Calm Calm - N/A   Clear
8:53 AM 57.9 °F 54.0 °F 87% 30.08 in 9.0 mi East 3.5 mph - N/A   Clear
9:53 AM 64.9 °F 55.9 °F 73% 30.08 in 10.0 mi SE 6.9 mph - N/A   Clear
10:53 AM 69.1 °F 57.0 °F 65% 30.07 in 10.0 mi SE 9.2 mph - N/A   Clear
11:53 AM 71.1 °F 57.0 °F 61% 30.06 in 10.0 mi South 5.8 mph - N/A   Clear
12:53 PM 73.0 °F 57.9 °F 59% 30.05 in 10.0 mi SSE 9.2 mph - N/A   Partly Cloudy
1:53 PM 73.9 °F 57.9 °F 57% 30.02 in 10.0 mi South 12.7 mph - N/A   Scattered Clouds
2:53 PM 73.9 °F 57.9 °F 57% 30.01 in 10.0 mi SSE 10.4 mph - N/A   Clear
3:53 PM 73.9 °F 57.9 °F 57% 30.00 in 10.0 mi South 9.2 mph - N/A   Clear
4:53 PM 73.9 °F 57.9 °F 57% 29.99 in 10.0 mi SSE 11.5 mph - N/A   Clear
5:53 PM 73.0 °F 57.0 °F 57% 29.99 in 10.0 mi SSE 8.1 mph - N/A   Clear
6:53 PM 70.0 °F 55.9 °F 61% 29.99 in 10.0 mi SSE 5.8 mph - N/A   Clear
7:53 PM 66.0 °F 55.9 °F 70% 29.99 in 10.0 mi SSE 3.5 mph - N/A   Clear
8:53 PM 62.1 °F 55.9 °F 80% 29.99 in 10.0 mi SE 5.8 mph - N/A   Clear
9:53 PM 62.1 °F 55.0 °F 78% 29.99 in 10.0 mi ESE 4.6 mph - N/A   Clear
10:53 PM 59.0 °F 55.0 °F 87% 29.99 in 10.0 mi ESE 4.6 mph - N/A   Clear
11:53 PM 59.0 °F 55.9 °F 90% 29.98 in 10.0 mi East 3.5 mph - N/A   Clear